LNI985 WAYY-WAAA

Flight info

Callsign LNI985
Flight time 2h 26m
Altitude 32000
Route ESNES T18 EMONA DCT SUGTA
Aircraft B739/M-SDE2E3FGHIRWXY/LB1

Departure

Time 2026-04-26 02:03
Airport Mozes Kilangin Airport (WAYY)

Arrival

Time 2026-04-26 04:29
Airport Sultan Hasanuddin International Airport (WAAA)
Time Latitude Longitude Altitude Speed Heading
2026-04-26 01:39 -4.52939 136.88243 103 ft 0 kts 209°
2026-04-26 01:52 -4.52938 136.88243 103 ft 1 kts 209°
2026-04-26 01:52 -4.52941 136.88242 102 ft 3 kts 216°
2026-04-26 01:52 -4.52929 136.88251 97 ft 3 kts 205°
2026-04-26 01:52 -4.52914 136.88254 95 ft 3 kts 157°
2026-04-26 01:53 -4.52899 136.88243 96 ft 3 kts 128°
2026-04-26 01:53 -4.52893 136.88235 97 ft 0 kts 122°
2026-04-26 01:57 -4.52896 136.88244 96 ft 3 kts 109°
2026-04-26 01:57 -4.52903 136.88281 95 ft 8 kts 102°
2026-04-26 01:57 -4.52928 136.88339 96 ft 11 kts 119°
2026-04-26 01:57 -4.52918 136.88393 94 ft 9 kts 38°
2026-04-26 01:58 -4.52860 136.88430 95 ft 10 kts 32°
2026-04-26 01:58 -4.52816 136.88486 97 ft 11 kts 97°
2026-04-26 01:58 -4.52860 136.88562 96 ft 14 kts 125°
2026-04-26 01:58 -4.52914 136.88652 96 ft 16 kts 121°
2026-04-26 01:59 -4.52976 136.88751 96 ft 18 kts 121°
2026-04-26 01:59 -4.53046 136.88865 94 ft 20 kts 122°
2026-04-26 01:59 -4.53124 136.88989 93 ft 22 kts 122°
2026-04-26 01:59 -4.53202 136.89114 93 ft 21 kts 122°
2026-04-26 02:00 -4.53283 136.89243 93 ft 22 kts 122°
2026-04-26 02:00 -4.53364 136.89373 94 ft 22 kts 122°
2026-04-26 02:00 -4.53443 136.89500 94 ft 22 kts 122°
2026-04-26 02:00 -4.53484 136.89590 94 ft 12 kts 95°
2026-04-26 02:01 -4.53496 136.89646 94 ft 2 kts 129°
2026-04-26 02:01 -4.53514 136.89646 95 ft 4 kts 198°
2026-04-26 02:01 -4.53520 136.89628 94 ft 3 kts 281°
2026-04-26 02:01 -4.53512 136.89613 94 ft 1 kts 301°
2026-04-26 02:02 -4.53507 136.89605 94 ft 3 kts 302°
2026-04-26 02:02 -4.53444 136.89503 92 ft 53 kts 302°
2026-04-26 02:02 -4.53062 136.88893 91 ft 149 kts 302°
2026-04-26 02:02 -4.52405 136.87832 509 ft 188 kts 301°
2026-04-26 02:03 -4.51778 136.86710 1686 ft 190 kts 299°
2026-04-26 02:03 -4.51119 136.85530 2554 ft 199 kts 299°
2026-04-26 02:03 -4.50364 136.84239 2953 ft 230 kts 303°
2026-04-26 02:03 -4.49425 136.82842 2907 ft 244 kts 304°
2026-04-26 02:04 -4.48479 136.81413 2899 ft 249 kts 303°
2026-04-26 02:04 -4.47506 136.79892 2997 ft 269 kts 302°
2026-04-26 02:04 -4.46499 136.78293 3957 ft 270 kts 302°
2026-04-26 02:04 -4.45510 136.76710 5096 ft 269 kts 302°
2026-04-26 02:05 -4.44783 136.74982 6109 ft 274 kts 277°
2026-04-26 02:05 -4.44971 136.73094 7139 ft 276 kts 251°
2026-04-26 02:05 -4.45865 136.71372 8044 ft 282 kts 239°
2026-04-26 02:05 -4.46943 136.69705 8916 ft 287 kts 237°
2026-04-26 02:06 -4.48050 136.68051 9842 ft 291 kts 237°
2026-04-26 02:06 -4.49201 136.66336 10471 ft 306 kts 237°
2026-04-26 02:06 -4.50438 136.64479 10657 ft 334 kts 237°
2026-04-26 02:06 -4.51768 136.62468 10845 ft 359 kts 237°
2026-04-26 02:07 -4.53169 136.60337 11258 ft 371 kts 237°
2026-04-26 02:07 -4.54600 136.58155 11917 ft 376 kts 237°
2026-04-26 02:07 -4.56041 136.55950 12612 ft 380 kts 237°
2026-04-26 02:07 -4.57496 136.53722 13276 ft 384 kts 237°
2026-04-26 02:08 -4.58966 136.51467 13897 ft 389 kts 237°
2026-04-26 02:08 -4.60455 136.49183 14460 ft 393 kts 237°
2026-04-26 02:08 -4.61958 136.46877 15015 ft 397 kts 237°
2026-04-26 02:08 -4.63475 136.44548 15591 ft 401 kts 236°
2026-04-26 02:09 -4.65007 136.42197 16135 ft 405 kts 236°
2026-04-26 02:09 -4.66556 136.39820 16635 ft 410 kts 236°
2026-04-26 02:09 -4.68119 136.37420 17220 ft 412 kts 236°
2026-04-26 02:09 -4.69691 136.35005 17736 ft 416 kts 236°
2026-04-26 02:10 -4.71280 136.32567 18229 ft 420 kts 236°
2026-04-26 02:10 -4.72880 136.30110 18660 ft 423 kts 236°
2026-04-26 02:10 -4.74493 136.27630 19105 ft 425 kts 236°
2026-04-26 02:10 -4.76111 136.25139 19539 ft 428 kts 236°
2026-04-26 02:11 -4.77742 136.22629 19963 ft 431 kts 236°
2026-04-26 02:11 -4.79383 136.20101 20365 ft 434 kts 236°
2026-04-26 02:11 -4.81035 136.17554 20759 ft 437 kts 236°
2026-04-26 02:11 -4.82698 136.14992 21151 ft 440 kts 236°
2026-04-26 02:12 -4.84372 136.12413 21536 ft 443 kts 236°
2026-04-26 02:12 -4.86055 136.09819 21906 ft 445 kts 236°
2026-04-26 02:12 -4.87750 136.07207 22266 ft 448 kts 235°
2026-04-26 02:12 -4.89450 136.04586 22625 ft 451 kts 235°
2026-04-26 02:13 -4.91165 136.01941 22963 ft 453 kts 235°
2026-04-26 02:13 -4.92888 135.99284 23288 ft 456 kts 235°
2026-04-26 02:13 -4.94621 135.96612 23585 ft 458 kts 235°
2026-04-26 02:13 -4.96176 135.93812 23819 ft 463 kts 248°
2026-04-26 02:14 -4.96907 135.90661 24078 ft 467 kts 264°
2026-04-26 02:14 -4.97119 135.87413 24378 ft 468 kts 266°
2026-04-26 02:14 -4.97275 135.84142 24620 ft 471 kts 267°
2026-04-26 02:14 -4.97417 135.80900 24845 ft 473 kts 267°
2026-04-26 02:15 -4.97571 135.77552 25099 ft 475 kts 266°
2026-04-26 02:15 -4.97738 135.74242 25353 ft 477 kts 266°
2026-04-26 02:15 -4.97918 135.70915 25598 ft 478 kts 266°
2026-04-26 02:15 -4.98108 135.67580 25827 ft 480 kts 266°
2026-04-26 02:16 -4.98304 135.64231 26065 ft 482 kts 266°
2026-04-26 02:16 -4.98503 135.60870 26288 ft 484 kts 266°
2026-04-26 02:16 -4.98702 135.57495 26512 ft 486 kts 266°
2026-04-26 02:16 -4.98902 135.54112 26733 ft 487 kts 266°
2026-04-26 02:17 -4.99102 135.50710 26947 ft 489 kts 266°
2026-04-26 02:17 -4.99301 135.47301 27162 ft 491 kts 266°
2026-04-26 02:17 -4.99501 135.43883 27361 ft 492 kts 266°
2026-04-26 02:17 -4.99698 135.40495 27556 ft 494 kts 266°
2026-04-26 02:18 -4.99899 135.37049 27752 ft 496 kts 266°
2026-04-26 02:18 -5.00100 135.33593 27940 ft 497 kts 266°
2026-04-26 02:18 -5.00301 135.30132 28163 ft 498 kts 266°
2026-04-26 02:18 -5.00502 135.26668 28451 ft 497 kts 266°
2026-04-26 02:19 -5.00702 135.23208 28768 ft 496 kts 266°
2026-04-26 02:19 -5.00903 135.19753 29069 ft 496 kts 266°
2026-04-26 02:19 -5.01102 135.16300 29365 ft 496 kts 266°
2026-04-26 02:19 -5.01302 135.12846 29675 ft 496 kts 266°
2026-04-26 02:20 -5.01502 135.09390 29998 ft 496 kts 266°
2026-04-26 02:20 -5.01702 135.05936 30300 ft 496 kts 266°
2026-04-26 02:20 -5.01900 135.02490 30646 ft 494 kts 266°
2026-04-26 02:20 -5.02098 134.99058 31015 ft 492 kts 266°
2026-04-26 02:21 -5.02296 134.95632 31395 ft 491 kts 266°
2026-04-26 02:21 -5.02492 134.92221 31778 ft 490 kts 266°
2026-04-26 02:21 -5.02688 134.88805 31883 ft 492 kts 266°
2026-04-26 02:22 -5.03081 134.81972 31892 ft 490 kts 266°
2026-04-26 02:22 -5.03472 134.75150 31900 ft 489 kts 266°
2026-04-26 02:23 -5.03861 134.68341 31896 ft 489 kts 266°
2026-04-26 02:23 -5.04249 134.61537 31898 ft 489 kts 266°
2026-04-26 02:24 -5.04637 134.54733 31896 ft 489 kts 266°
2026-04-26 02:24 -5.05024 134.47926 31896 ft 489 kts 266°
2026-04-26 02:25 -5.05294 134.41111 31891 ft 489 kts 268°
2026-04-26 02:25 -5.05470 134.34283 31896 ft 490 kts 268°
2026-04-26 02:26 -5.05649 134.27454 31894 ft 490 kts 268°
2026-04-26 02:26 -5.05846 134.20622 31894 ft 490 kts 268°
2026-04-26 02:27 -5.06050 134.13780 31892 ft 490 kts 268°
2026-04-26 02:27 -5.06255 134.06945 31892 ft 490 kts 268°
2026-04-26 02:28 -5.06459 134.00106 31894 ft 490 kts 268°
2026-04-26 02:28 -5.06661 133.93272 31890 ft 490 kts 268°
2026-04-26 02:29 -5.06862 133.86444 31891 ft 490 kts 268°
2026-04-26 02:29 -5.07060 133.79662 31891 ft 490 kts 268°
2026-04-26 02:30 -5.07260 133.72838 31890 ft 489 kts 268°
2026-04-26 02:30 -5.07458 133.66022 31890 ft 489 kts 268°
2026-04-26 02:31 -5.07656 133.59206 31891 ft 489 kts 268°
2026-04-26 02:31 -5.07853 133.52391 31889 ft 489 kts 268°
2026-04-26 02:32 -5.08049 133.45575 31889 ft 489 kts 269°
2026-04-26 02:32 -5.08245 133.38760 31891 ft 489 kts 269°
2026-04-26 02:33 -5.08440 133.31943 31889 ft 489 kts 269°
2026-04-26 02:33 -5.08634 133.25123 31890 ft 489 kts 269°
2026-04-26 02:34 -5.08828 133.18298 31890 ft 489 kts 268°
2026-04-26 02:34 -5.08988 133.12628 31888 ft 489 kts 268°
2026-04-26 02:35 -5.09181 133.05803 31886 ft 489 kts 268°
2026-04-26 02:35 -5.09372 132.98980 31887 ft 489 kts 268°
2026-04-26 02:36 -5.09563 132.92158 31886 ft 489 kts 268°
2026-04-26 02:36 -5.09753 132.85335 31886 ft 489 kts 268°
2026-04-26 02:37 -5.09942 132.78519 31889 ft 489 kts 268°
2026-04-26 02:37 -5.10131 132.71706 31884 ft 489 kts 268°
2026-04-26 02:38 -5.10319 132.64894 31885 ft 488 kts 268°
2026-04-26 02:38 -5.10505 132.58088 31882 ft 488 kts 268°
2026-04-26 02:39 -5.10692 132.51282 31884 ft 488 kts 268°
2026-04-26 02:39 -5.10877 132.44484 31888 ft 488 kts 268°
2026-04-26 02:40 -5.11061 132.37687 31886 ft 487 kts 268°
2026-04-26 02:40 -5.11245 132.30890 31891 ft 487 kts 268°
2026-04-26 02:41 -5.11428 132.24093 31890 ft 487 kts 268°
2026-04-26 02:41 -5.11610 132.17297 31887 ft 487 kts 268°
2026-04-26 02:42 -5.11790 132.10545 31888 ft 488 kts 268°
2026-04-26 02:42 -5.11971 132.03743 31886 ft 488 kts 268°
2026-04-26 02:43 -5.12242 131.93538 31889 ft 488 kts 268°
2026-04-26 02:43 -5.12421 131.86735 31886 ft 488 kts 268°
2026-04-26 02:44 -5.12599 131.79924 31890 ft 488 kts 268°
2026-04-26 02:44 -5.12777 131.73118 31888 ft 488 kts 269°
2026-04-26 02:45 -5.12955 131.66312 31887 ft 488 kts 269°
2026-04-26 02:45 -5.13131 131.59506 31887 ft 488 kts 269°
2026-04-26 02:46 -5.13314 131.52707 31888 ft 488 kts 268°
2026-04-26 02:46 -5.13524 131.45911 31886 ft 487 kts 268°
2026-04-26 02:47 -5.13739 131.39126 31891 ft 487 kts 268°
2026-04-26 02:47 -5.13951 131.32344 31890 ft 486 kts 268°
2026-04-26 02:48 -5.14159 131.25568 31886 ft 486 kts 268°
2026-04-26 02:48 -5.14364 131.18804 31886 ft 485 kts 268°
2026-04-26 02:49 -5.14570 131.12049 31892 ft 484 kts 268°
2026-04-26 02:49 -5.14774 131.05305 31891 ft 484 kts 268°
2026-04-26 02:50 -5.14977 130.98563 31892 ft 483 kts 268°
2026-04-26 02:50 -5.15179 130.91835 31892 ft 483 kts 268°
2026-04-26 02:51 -5.15381 130.85108 31887 ft 482 kts 268°
2026-04-26 02:51 -5.15582 130.78386 31891 ft 482 kts 268°
2026-04-26 02:52 -5.15782 130.71661 31892 ft 482 kts 268°
2026-04-26 02:52 -5.15981 130.64933 31894 ft 483 kts 268°
2026-04-26 02:53 -5.16180 130.58197 31890 ft 483 kts 268°
2026-04-26 02:53 -5.16378 130.51462 31890 ft 484 kts 268°
2026-04-26 02:54 -5.16576 130.44714 31889 ft 484 kts 268°
2026-04-26 02:54 -5.16773 130.37961 31890 ft 485 kts 268°
2026-04-26 02:55 -5.16970 130.31200 31887 ft 485 kts 268°
2026-04-26 02:55 -5.17166 130.24441 31888 ft 485 kts 268°
2026-04-26 02:56 -5.17362 130.17680 31887 ft 485 kts 268°
2026-04-26 02:56 -5.17556 130.10923 31889 ft 485 kts 268°
2026-04-26 02:57 -5.17750 130.04167 31888 ft 484 kts 268°
2026-04-26 02:57 -5.17943 129.97421 31888 ft 484 kts 268°
2026-04-26 02:58 -5.18135 129.90680 31893 ft 483 kts 268°
2026-04-26 02:58 -5.18326 129.83946 31888 ft 483 kts 268°
2026-04-26 02:59 -5.18516 129.77217 31894 ft 482 kts 268°
2026-04-26 02:59 -5.18705 129.70491 31892 ft 482 kts 268°
2026-04-26 03:00 -5.18894 129.63772 31889 ft 482 kts 268°
2026-04-26 03:00 -5.19082 129.57046 31889 ft 482 kts 268°
2026-04-26 03:01 -5.19268 129.50369 31889 ft 482 kts 268°
2026-04-26 03:01 -5.19456 129.43601 31890 ft 482 kts 268°
2026-04-26 03:02 -5.19642 129.36868 31888 ft 483 kts 268°
2026-04-26 03:02 -5.19827 129.30137 31895 ft 483 kts 268°
2026-04-26 03:03 -5.20012 129.23395 31896 ft 483 kts 268°
2026-04-26 03:03 -5.20195 129.16696 31892 ft 484 kts 268°
2026-04-26 03:04 -5.20378 129.09952 31890 ft 484 kts 268°
2026-04-26 03:04 -5.20561 129.03206 31890 ft 484 kts 268°
2026-04-26 03:05 -5.20743 128.96468 31892 ft 483 kts 268°
2026-04-26 03:05 -5.20924 128.89729 31889 ft 483 kts 268°
2026-04-26 03:06 -5.21104 128.83004 31891 ft 482 kts 268°
2026-04-26 03:06 -5.21283 128.76277 31890 ft 482 kts 268°
2026-04-26 03:07 -5.21462 128.69554 31888 ft 482 kts 268°
2026-04-26 03:07 -5.21640 128.62835 31886 ft 482 kts 268°
2026-04-26 03:08 -5.21817 128.56111 31886 ft 482 kts 268°
2026-04-26 03:08 -5.21994 128.49380 31886 ft 483 kts 268°
2026-04-26 03:09 -5.22169 128.42693 31888 ft 483 kts 268°
2026-04-26 03:09 -5.22344 128.35953 31889 ft 484 kts 268°
2026-04-26 03:10 -5.22519 128.29200 31890 ft 484 kts 268°
2026-04-26 03:10 -5.22694 128.22439 31886 ft 485 kts 268°
2026-04-26 03:11 -5.22868 128.15668 31886 ft 486 kts 269°
2026-04-26 03:11 -5.23041 128.08889 31887 ft 486 kts 269°
2026-04-26 03:12 -5.23214 128.02102 31883 ft 487 kts 269°
2026-04-26 03:12 -5.23387 127.95312 31884 ft 487 kts 269°
2026-04-26 03:13 -5.23558 127.88522 31884 ft 487 kts 269°
2026-04-26 03:13 -5.23729 127.81737 31883 ft 486 kts 269°
2026-04-26 03:14 -5.23887 127.74954 31881 ft 486 kts 269°
2026-04-26 03:14 -5.23959 127.68181 31880 ft 485 kts 270°
2026-04-26 03:15 -5.24009 127.61421 31880 ft 484 kts 270°
2026-04-26 03:15 -5.24066 127.54669 31880 ft 484 kts 270°
2026-04-26 03:16 -5.24131 127.47928 31883 ft 483 kts 269°
2026-04-26 03:16 -5.24197 127.41196 31878 ft 483 kts 269°
2026-04-26 03:17 -5.24263 127.34464 31881 ft 482 kts 269°
2026-04-26 03:17 -5.24328 127.27742 31878 ft 482 kts 269°
2026-04-26 03:18 -5.24392 127.21020 31879 ft 482 kts 269°
2026-04-26 03:18 -5.24454 127.14341 31883 ft 482 kts 269°
2026-04-26 03:19 -5.24517 127.07611 31880 ft 483 kts 269°
2026-04-26 03:19 -5.24578 127.00874 31880 ft 483 kts 269°
2026-04-26 03:20 -5.24639 126.94134 31879 ft 483 kts 269°
2026-04-26 03:20 -5.24700 126.87387 31878 ft 484 kts 269°
2026-04-26 03:21 -5.24750 126.81735 31877 ft 484 kts 269°
2026-04-26 03:21 -5.24809 126.74987 31880 ft 484 kts 269°
2026-04-26 03:22 -5.24867 126.68240 31881 ft 483 kts 269°
2026-04-26 03:22 -5.24924 126.61546 31879 ft 483 kts 269°
2026-04-26 03:23 -5.24981 126.54812 31879 ft 482 kts 269°
2026-04-26 03:23 -5.25037 126.48082 31877 ft 482 kts 269°
2026-04-26 03:24 -5.25092 126.41361 31883 ft 482 kts 269°
2026-04-26 03:24 -5.25146 126.34646 31882 ft 481 kts 269°
2026-04-26 03:25 -5.25200 126.27932 31878 ft 481 kts 269°
2026-04-26 03:25 -5.25253 126.21225 31879 ft 481 kts 270°
2026-04-26 03:26 -5.25305 126.14519 31880 ft 481 kts 269°
2026-04-26 03:26 -5.25357 126.07816 31879 ft 481 kts 269°
2026-04-26 03:27 -5.25407 126.01109 31878 ft 481 kts 270°
2026-04-26 03:27 -5.25457 125.94407 31879 ft 481 kts 270°
2026-04-26 03:28 -5.25507 125.87698 31880 ft 481 kts 270°
2026-04-26 03:28 -5.25555 125.80997 31880 ft 481 kts 269°
2026-04-26 03:29 -5.25603 125.74290 31878 ft 480 kts 269°
2026-04-26 03:29 -5.25650 125.67591 31880 ft 480 kts 269°
2026-04-26 03:30 -5.25697 125.60890 31876 ft 480 kts 269°
2026-04-26 03:30 -5.25742 125.54237 31876 ft 480 kts 269°
2026-04-26 03:31 -5.25787 125.47545 31876 ft 480 kts 269°
2026-04-26 03:31 -5.25832 125.40854 31875 ft 480 kts 269°
2026-04-26 03:32 -5.25875 125.34161 31880 ft 479 kts 269°
2026-04-26 03:32 -5.25918 125.27475 31882 ft 479 kts 269°
2026-04-26 03:33 -5.25960 125.20784 31880 ft 479 kts 269°
2026-04-26 03:33 -5.26002 125.14099 31879 ft 479 kts 269°
2026-04-26 03:34 -5.26042 125.07411 31881 ft 480 kts 269°
2026-04-26 03:34 -5.26082 125.00718 31880 ft 480 kts 269°
2026-04-26 03:35 -5.26121 124.94024 31880 ft 480 kts 269°
2026-04-26 03:35 -5.26160 124.87331 31879 ft 480 kts 269°
2026-04-26 03:36 -5.26198 124.80632 31880 ft 480 kts 269°
2026-04-26 03:36 -5.26235 124.73929 31880 ft 480 kts 269°
2026-04-26 03:37 -5.26271 124.67226 31878 ft 480 kts 269°
2026-04-26 03:37 -5.26307 124.60524 31878 ft 480 kts 269°
2026-04-26 03:38 -5.26342 124.53824 31878 ft 480 kts 269°
2026-04-26 03:38 -5.26376 124.47119 31879 ft 480 kts 269°
2026-04-26 03:39 -5.26410 124.40419 31879 ft 480 kts 269°
2026-04-26 03:39 -5.26443 124.33764 31880 ft 480 kts 269°
2026-04-26 03:40 -5.26475 124.27064 31880 ft 480 kts 269°
2026-04-26 03:40 -5.26178 124.20383 31874 ft 480 kts 280°
2026-04-26 03:41 -5.24490 124.13915 31876 ft 479 kts 286°
2026-04-26 03:41 -5.22619 124.07492 31881 ft 480 kts 287°
2026-04-26 03:42 -5.20780 124.01058 31882 ft 480 kts 286°
2026-04-26 03:42 -5.18978 123.94614 31879 ft 480 kts 286°
2026-04-26 03:43 -5.17188 123.88168 31880 ft 480 kts 286°
2026-04-26 03:43 -5.15398 123.81720 31881 ft 480 kts 286°
2026-04-26 03:44 -5.13604 123.75269 31879 ft 480 kts 286°
2026-04-26 03:44 -5.11809 123.68818 31878 ft 480 kts 286°
2026-04-26 03:45 -5.10011 123.62362 31880 ft 480 kts 286°
2026-04-26 03:45 -5.08214 123.55913 31884 ft 480 kts 286°
2026-04-26 03:46 -5.06415 123.49459 31886 ft 480 kts 286°
2026-04-26 03:47 -5.03717 123.39780 31881 ft 480 kts 286°
2026-04-26 03:47 -5.01929 123.33371 31884 ft 481 kts 286°
2026-04-26 03:48 -5.00127 123.26917 31882 ft 481 kts 286°
2026-04-26 03:48 -4.98312 123.20417 31883 ft 481 kts 286°
2026-04-26 03:49 -4.96521 123.14003 31883 ft 481 kts 286°
2026-04-26 03:49 -4.94717 123.07546 31884 ft 481 kts 286°
2026-04-26 03:50 -4.92910 123.01083 31887 ft 481 kts 286°
2026-04-26 03:50 -4.91102 122.94619 31883 ft 482 kts 286°
2026-04-26 03:51 -4.89292 122.88147 31883 ft 482 kts 286°
2026-04-26 03:51 -4.87479 122.81672 31883 ft 482 kts 286°
2026-04-26 03:52 -4.85667 122.75198 31884 ft 483 kts 286°
2026-04-26 03:52 -4.83852 122.68718 31881 ft 483 kts 286°
2026-04-26 03:53 -4.82033 122.62227 31873 ft 483 kts 286°
2026-04-26 03:53 -4.80214 122.55739 31876 ft 484 kts 286°
2026-04-26 03:54 -4.78393 122.49245 31883 ft 484 kts 286°
2026-04-26 03:54 -4.76569 122.42742 31879 ft 485 kts 286°
2026-04-26 03:55 -4.74744 122.36237 31873 ft 485 kts 286°
2026-04-26 03:55 -4.72916 122.29728 31870 ft 485 kts 286°
2026-04-26 03:56 -4.71090 122.23225 31873 ft 485 kts 286°
2026-04-26 03:56 -4.69264 122.16724 31871 ft 484 kts 286°
2026-04-26 03:57 -4.67436 122.10220 31870 ft 484 kts 286°
2026-04-26 03:57 -4.66037 122.03643 31866 ft 485 kts 269°
2026-04-26 03:57 -4.66509 122.00361 31882 ft 483 kts 252°
2026-04-26 03:58 -4.67797 121.97259 31881 ft 482 kts 239°
2026-04-26 03:58 -4.69816 121.94598 31882 ft 479 kts 224°
2026-04-26 03:58 -4.72186 121.92249 31880 ft 479 kts 222°
2026-04-26 03:59 -4.77037 121.87666 31871 ft 479 kts 221°
2026-04-26 03:59 -4.81870 121.83052 31868 ft 480 kts 222°
2026-04-26 04:00 -4.86661 121.78387 31869 ft 480 kts 223°
2026-04-26 04:00 -4.91437 121.73709 31868 ft 480 kts 223°
2026-04-26 04:01 -4.96211 121.69035 31873 ft 480 kts 223°
2026-04-26 04:01 -5.00987 121.64362 31874 ft 480 kts 223°
2026-04-26 04:02 -5.05762 121.59689 31866 ft 479 kts 223°
2026-04-26 04:02 -5.10521 121.55009 31873 ft 480 kts 226°
2026-04-26 04:02 -5.12427 121.52262 31879 ft 482 kts 243°
2026-04-26 04:03 -5.13540 121.49103 31867 ft 483 kts 259°
2026-04-26 04:03 -5.13923 121.42381 31875 ft 483 kts 269°
2026-04-26 04:04 -5.14018 121.35631 31863 ft 484 kts 269°
2026-04-26 04:04 -5.14190 121.28881 31865 ft 484 kts 268°
2026-04-26 04:05 -5.14411 121.22128 31869 ft 485 kts 268°
2026-04-26 04:05 -5.14629 121.15467 31861 ft 471 kts 268°
2026-04-26 04:06 -5.14839 121.08913 31872 ft 470 kts 268°
2026-04-26 04:06 -5.14944 121.05627 31572 ft 473 kts 268°
2026-04-26 04:06 -5.15048 121.02391 31130 ft 467 kts 268°
2026-04-26 04:06 -5.15153 120.99113 30637 ft 460 kts 268°
2026-04-26 04:07 -5.15253 120.95969 30157 ft 454 kts 268°
2026-04-26 04:07 -5.15354 120.92821 29588 ft 449 kts 268°
2026-04-26 04:07 -5.15453 120.89712 29051 ft 443 kts 268°
2026-04-26 04:07 -5.15551 120.86645 28533 ft 437 kts 268°
2026-04-26 04:08 -5.15646 120.83624 28036 ft 430 kts 268°
2026-04-26 04:08 -5.15741 120.80646 27562 ft 425 kts 268°
2026-04-26 04:08 -5.15834 120.77702 27073 ft 419 kts 268°
2026-04-26 04:08 -5.15926 120.74799 26607 ft 414 kts 268°
2026-04-26 04:09 -5.15986 120.72894 26307 ft 411 kts 268°
2026-04-26 04:09 -5.16077 120.70047 25861 ft 406 kts 268°
2026-04-26 04:09 -5.16169 120.67232 25429 ft 401 kts 268°
2026-04-26 04:09 -5.16291 120.63512 24826 ft 397 kts 268°
2026-04-26 04:10 -5.16351 120.61682 24519 ft 396 kts 268°
2026-04-26 04:10 -5.16442 120.58918 24064 ft 397 kts 268°
2026-04-26 04:10 -5.16532 120.56142 23607 ft 401 kts 268°
2026-04-26 04:10 -5.16624 120.53327 23078 ft 405 kts 268°
2026-04-26 04:11 -5.16715 120.50519 22576 ft 400 kts 268°
2026-04-26 04:11 -5.16805 120.47747 22103 ft 394 kts 268°
2026-04-26 04:11 -5.16893 120.45018 21647 ft 389 kts 268°
2026-04-26 04:11 -5.16980 120.42326 21203 ft 384 kts 268°
2026-04-26 04:12 -5.17066 120.39666 20760 ft 379 kts 268°
2026-04-26 04:12 -5.17151 120.37041 20341 ft 374 kts 268°
2026-04-26 04:12 -5.17235 120.34445 19930 ft 370 kts 268°
2026-04-26 04:12 -5.17317 120.31882 19516 ft 366 kts 268°
2026-04-26 04:13 -5.17399 120.29334 19078 ft 364 kts 268°
2026-04-26 04:13 -5.17481 120.26806 18652 ft 362 kts 268°
2026-04-26 04:13 -5.17561 120.24292 18228 ft 360 kts 268°
2026-04-26 04:13 -5.17642 120.21789 17757 ft 358 kts 269°
2026-04-26 04:14 -5.17721 120.19309 17315 ft 354 kts 268°
2026-04-26 04:14 -5.17801 120.16847 16890 ft 351 kts 269°
2026-04-26 04:14 -5.17878 120.14410 16469 ft 348 kts 269°
2026-04-26 04:14 -5.17955 120.11996 16065 ft 345 kts 269°
2026-04-26 04:15 -5.18031 120.09597 15656 ft 343 kts 269°
2026-04-26 04:15 -5.18107 120.07213 15261 ft 342 kts 269°
2026-04-26 04:15 -5.18183 120.04819 14851 ft 345 kts 269°
2026-04-26 04:15 -5.18261 120.02399 14436 ft 349 kts 269°
2026-04-26 04:16 -5.18342 119.99959 13998 ft 350 kts 269°
2026-04-26 04:16 -5.18423 119.97539 13564 ft 345 kts 268°
2026-04-26 04:16 -5.18503 119.95146 13133 ft 341 kts 269°
2026-04-26 04:16 -5.18581 119.92786 12712 ft 337 kts 269°
2026-04-26 04:17 -5.18655 119.90448 12298 ft 333 kts 269°
2026-04-26 04:17 -5.18731 119.88141 11895 ft 329 kts 268°
2026-04-26 04:17 -5.18808 119.85858 11504 ft 326 kts 268°
2026-04-26 04:17 -5.18884 119.83599 11109 ft 322 kts 268°
2026-04-26 04:18 -5.19154 119.81439 10919 ft 312 kts 252°
2026-04-26 04:18 -5.20148 119.79545 10640 ft 306 kts 230°
2026-04-26 04:18 -5.21527 119.77971 10442 ft 297 kts 227°
2026-04-26 04:18 -5.22925 119.76458 10170 ft 293 kts 226°
2026-04-26 04:19 -5.24304 119.74973 9910 ft 289 kts 226°
2026-04-26 04:19 -5.25664 119.73502 9624 ft 286 kts 227°
2026-04-26 04:19 -5.27008 119.72038 9328 ft 285 kts 227°
2026-04-26 04:19 -5.28327 119.70596 9199 ft 275 kts 227°
2026-04-26 04:20 -5.29606 119.69193 8962 ft 271 kts 227°
2026-04-26 04:20 -5.30873 119.67800 8673 ft 269 kts 227°
2026-04-26 04:20 -5.32130 119.66419 8392 ft 267 kts 227°
2026-04-26 04:20 -5.33375 119.65048 8101 ft 265 kts 227°
2026-04-26 04:21 -5.34614 119.63685 7833 ft 264 kts 227°
2026-04-26 04:21 -5.35862 119.62312 7551 ft 269 kts 227°
2026-04-26 04:21 -5.37065 119.60851 7244 ft 275 kts 240°
2026-04-26 04:21 -5.37574 119.59017 6940 ft 275 kts 271°
2026-04-26 04:22 -5.37158 119.57168 6658 ft 274 kts 295°
2026-04-26 04:22 -5.36273 119.55472 6321 ft 276 kts 300°
2026-04-26 04:22 -5.35330 119.53800 5992 ft 274 kts 300°
2026-04-26 04:22 -5.34393 119.52140 5664 ft 273 kts 300°
2026-04-26 04:23 -5.33472 119.50482 5347 ft 271 kts 300°
2026-04-26 04:23 -5.32564 119.48829 5043 ft 269 kts 299°
2026-04-26 04:23 -5.31665 119.47186 4738 ft 268 kts 299°
2026-04-26 04:23 -5.30776 119.45554 4417 ft 266 kts 299°
2026-04-26 04:24 -5.29748 119.44058 4077 ft 257 kts 321°
2026-04-26 04:24 -5.28160 119.43411 3810 ft 244 kts 359°
2026-04-26 04:24 -5.26589 119.43849 3573 ft 233 kts 35°
2026-04-26 04:24 -5.25356 119.44805 3475 ft 214 kts 38°
2026-04-26 04:25 -5.24162 119.45675 3260 ft 211 kts 34°
2026-04-26 04:25 -5.22943 119.46440 3008 ft 203 kts 31°
2026-04-26 04:25 -5.21755 119.47136 2752 ft 193 kts 30°
2026-04-26 04:25 -5.20619 119.47793 2498 ft 184 kts 30°
2026-04-26 04:26 -5.19550 119.48412 2279 ft 171 kts 30°
2026-04-26 04:26 -5.18555 119.48989 2086 ft 159 kts 29°
2026-04-26 04:26 -5.17604 119.49540 1888 ft 158 kts 29°
2026-04-26 04:26 -5.16667 119.50083 1686 ft 153 kts 29°
2026-04-26 04:27 -5.15743 119.50617 1479 ft 155 kts 28°
2026-04-26 04:27 -5.14812 119.51158 1279 ft 152 kts 27°
2026-04-26 04:27 -5.13897 119.51689 1103 ft 153 kts 28°
2026-04-26 04:27 -5.12976 119.52222 932 ft 153 kts 27°
2026-04-26 04:28 -5.12060 119.52773 731 ft 153 kts 30°
2026-04-26 04:28 -5.11181 119.53278 542 ft 145 kts 27°
2026-04-26 04:28 -5.10314 119.53788 347 ft 138 kts 25°
2026-04-26 04:28 -5.09473 119.54266 135 ft 139 kts 26°
2026-04-26 04:29 -5.08660 119.54728 41 ft 125 kts 26°
2026-04-26 04:29 -5.08009 119.55109 39 ft 91 kts 30°
2026-04-26 04:29 -5.07633 119.55326 40 ft 34 kts 30°
2026-04-26 04:29 -5.07481 119.55403 40 ft 23 kts 20°
2026-04-26 04:30 -5.07353 119.55426 39 ft 14 kts
2026-04-26 04:30 -5.07269 119.55428 39 ft 12 kts
2026-04-26 04:30 -5.07198 119.55413 40 ft 7 kts 317°
2026-04-26 04:30 -5.07197 119.55410 40 ft 1 kts 304°
2026-04-26 04:31 -5.07195 119.55384 40 ft 6 kts 251°
2026-04-26 04:31 -5.07238 119.55348 40 ft 10 kts 210°
2026-04-26 04:31 -5.07311 119.55305 40 ft 14 kts 210°
2026-04-26 04:31 -5.07407 119.55250 40 ft 18 kts 211°
2026-04-26 04:32 -5.07516 119.55184 40 ft 18 kts 211°
2026-04-26 04:32 -5.07609 119.55124 40 ft 13 kts 233°
2026-04-26 04:32 -5.07596 119.55042 39 ft 13 kts 299°
2026-04-26 04:32 -5.07578 119.54988 40 ft 5 kts 254°
2026-04-26 04:33 -5.07589 119.54952 40 ft 6 kts 256°
2026-04-26 04:33 -5.07605 119.54916 40 ft 6 kts 230°
2026-04-26 04:33 -5.07639 119.54890 40 ft 3 kts 222°
2026-04-26 04:33 -5.07639 119.54887 40 ft 0 kts 259°
2026-04-26 04:34 -5.07636 119.54875 40 ft 4 kts 284°
2026-04-26 04:34 -5.07621 119.54844 40 ft 6 kts 298°
2026-04-26 04:34 -5.07611 119.54825 40 ft 0 kts 299°